Location: Newark
(54.4333°N, 18.5500°E)
Time: 11:53:29
(UTC+00:00)

Envisat - Pass Details

Date: 13 December 2019
Orbit: 764 x 766 km, 98.1° (Epoch: 22 January)

Event Time Altitude Azimuth Distance (km) Brightness Sun altitude
Rises 04:25:37 0° 24° (NNE) 3,248 6.4 -20.6°
Reaches altitude 10° 04:28:33 10° 41° (NE) 2,316 5.8 -20.2°
Maximum altitude 04:32:18 20° 88° (E) 1,706 5.7 -19.7°
Drops below altitude 10° 04:36:01 10° 136° (SE) 2,302 6.3 -19.2°
Sets 04:38:54 0° 153° (SSE) 3,222 6.9 -18.7°
